STARLINK-36717, 67743

Orbit data source: Space-Track

STARLINK-36717, 67743 is a payload satellite owned by SpaceX/Seattle (US) in SSO that was launched on Wed, 11 Feb 2026 UTC via an FALCON 9 launch vehicle from the Air Force Western Test Range (AFWTR). Payload-class satellites include a variety of spacecraft equipped with specific instruments for various scientific and technological missions. These include communications satellites like Starlink; space stations such as the ISS; scientific satellites like the Hubble; Earth observation satellites from companies like Planet Labs, Umbra, and HawkEye 360; GPS; miniature CubeSats for education and research; and military/defense satellites.

Loading next visibility...
Identifier
67743, 2026-026Y
Orbit
SSO
Country
Flag of USUS
Related business
Manufacturer
SpaceX/Seattle
Mission
Operational Commercial Communications
Bus & Motor
STARLINK V2MO, Unknown motor
Mass
575 kg wet, ~530 kg dry
Launch date (UTC)
2026-02-11 (3 months ago)
Launch vehicle
FALCON 9
Launch site
Air Force Western Test Range (AFWTR)
Object type
Payload
Rocket body
Debris
Shape & HBR
Box + 2 Pan, 17.7 m
Radar Cross Section
36.964 m²

Expand to show TLE details & history
Last TLE update: 9 hours ago

TLE from 9 hours ago
0 STARLINK-36717
1 67743U 26026Y   26130.11247890  .00013124  00000-0  40822-3 0  9997
2 67743  97.2847 183.9182 0000595 106.0757 254.0552 15.33439725 13541
Epoch: 2026-05-10T02:41Z
TLE epoch observation values (Epoch: 2026-05-10T02:41:58.176Z)
Latitude
0.00002°
Longitude
-84.49444°
Altitude
468.783 km
Speed
7.632 km/s
True Right ascension
12h 15m 40s
True Declination
0° 00' 00"
Sunlit
Object was in full shadow at epoch
Visualization orbit readout
Latitude
Unknown
Longitude
Unknown
Altitude
Unknown
Speed
Unknown
Apparent Right ascension
Unknown
Apparent Declination
Unknown
Sunlit
N/A
Visualization observer readout
Local Sidereal Time
19:48:58
Azimuth
Unknown
Elevation
Unknown
Doppler factor
Unknown
Orbital elements
Apogee altitude
462.909 km
Perigee altitude
462.095 km
Semi-major axis
6,840.639 km
Eccentricity
0.00006
Inclination
97.2847°
RAAN
183.9182°
Arg. of periapsis
106.0757°
True anomaly
254.04864°
Mean anomaly
254.0552°
Eccentric anomaly
254.05192°
Mean motion
3.83617 °/min
Orbital period
93.84 mins
BSTAR
0.00040822
Loading maneuver chart data...
Computing Atmospheric mass density...
Loading historical data...
Loading historical data...
Loading historical data...
Loading historical data...
Loading historical data...
Loading historical data...
Loading historical data...

Documentation

Showing up to 5 results
|